Dewpoint
67 68 69 68 68 69 69 71 73 73 72 73 73 73 73 71 69 69 71 70 71 70 70 70 70 70 70 69 68 67 66 65 63
67 66 67 68 68 68 68 69 70 73 72 72 72 72 71 68 68 68 68 69 71 71 70 69 69 70 70 68 68 67 66 65 62
65 65 65 65 66 67 67 69 71 72 72 71 72 71 70 67 67 69 68 69 69 70 70 69 69 69 69 68 68 67 66 64 62
65 64 64 64 64 65 66 68 69 69 70 70 70 70 68 65 65 66 69 71 71 70 70 70 69 69 69 69 68 68 67 64 63
64 63 63 62 63 63 63 64 67 68 68 66 65 67 66 63 64 65 66 68 68 70 71 71 71 70 69 69 69 68 67 66 64
61 61 61 61 61 60 59 59 60 60 61 59 59 66 61 61 62 64 67 65 65 68 69 69 70 69 70 70 70 68 66 67 66
59 60 59 59 58 57 55 53 50 52 50 47 54 60 59 59 60 62 64 62 61 62 66 67 67 68 69 70 70 68 67 66 67
58 56 55 50 51 46 45 43 39 41 43 42 43 57 55 55 57 61 63 63 63 63 63 64 64 65 67 67 68 70 68 66 67
54 53 51 47 47 43 41 37 36 32 33 31 33 51 52 53 54 57 60 61 62 61 60 61 61 63 65 64 65 66 67 69 68
51 49 47 44 42 41 38 35 34 28 26 27 27 39 49 49 50 50 55 57 57 56 56 57 58 58 60 60 60 60 61 63 65
49 46 46 45 41 37 35 34 31 28 27 27 28 31 46 46 46 47 48 51 51 50 50 51 53 54 55 55 55 55 57 58 60
46 45 43 41 39 36 34 32 32 30 30 27 27 29 31 42 43 45 45 47 49 47 46 46 49 50 50 50 50 51 52 53 54
42 42 41 41 38 37 35 33 33 32 30 29 29 29 30 29 40 44 45 45 45 47 45 44 44 45 45 47 48 50 51 52 53
42 41 41 41 39 37 35 34 33 33 33 32 32 31 30 30 31 40 42 43 45 45 46 45 44 45 42 44 44 47 49 50 52
41 42 41 40 40 38 37 34 36 35 34 33 31 29 31 33 31 33 37 39 41 43 40 40 39 45 45 42 41 43 46 44 48
41 43 41 41 40 38 37 36 34 35 35 32 31 32 32 30 32 32 34 36 38 39 39 39 38 39 47 41 40 42 43 42 45
42 42 41 41 41 38 37 36 36 35 35 31 31 27 29 31 30 32 32 32 37 37 37 37 36 38 38 40 45 43 41 42 44
42 42 42 41 41 39 38 37 36 35 36 33 30 27 27 30 31 28 32 30 33 36 34 33 33 34 35 41 46 50 44 43 45
43 42 42 41 41 40 39 38 37 37 35 35 33 31 30 27 26 29 30 29 29 30 33 32 30 31 33 38 43 46 46 45 43
42 42 41 41 41 40 39 39 38 37 36 35 33 29 29 28 27 26 28 31 31 31 30 31 30 30 32 35 39 48 48 47 44
Lifted_Index
2 1 1 0 -0 -1 -1 -2 -4 -4 -4 -4 -4 -4 -3 -2 -2 -2 -2 -3 -3 -3 -3 -3 -3 -3 -3 -2 -2 -1 0 1 2
2 2 1 1 0 0 -1 -2 -3 -4 -4 -4 -4 -3 -3 -1 -1 -1 -2 -2 -3 -3 -3 -3 -3 -3 -3 -2 -2 -1 0 1 2
3 3 3 2 2 1 1 -1 -2 -3 -3 -3 -3 -3 -2 -1 -0 -1 -1 -2 -3 -3 -3 -3 -3 -3 -3 -2 -1 -1 0 2 3
3 3 3 4 3 3 2 1 -1 -2 -2 -2 -2 -2 -1 0 0 -0 -1 -2 -3 -3 -3 -3 -3 -3 -3 -2 -2 -1 -0 1 2
3 3 4 4 4 4 4 3 2 0 -0 -1 -1 -1 -0 1 1 1 -0 -1 -2 -2 -2 -3 -3 -3 -2 -2 -2 -1 -0 1 1
4 4 5 5 5 5 6 6 5 4 2 0 -0 -0 0 1 2 2 1 1 0 -1 -1 -2 -2 -2 -2 -2 -2 -1 -1 -0 0
5 5 6 6 7 7 8 9 9 7 4 2 2 2 2 2 2 2 2 2 2 1 0 0 -0 -1 -1 -2 -2 -2 -1 -0 -0
6 7 8 9 9 10 10 11 11 10 8 6 5 4 4 4 4 4 4 3 3 3 2 2 1 1 0 -0 -1 -1 -1 -1 -1
8 9 10 11 11 11 11 12 12 12 12 10 9 8 7 7 7 7 6 5 4 4 4 3 3 2 1 1 1 0 -1 -1 -1
8 10 12 13 13 12 12 12 12 13 13 13 13 11 10 10 10 10 9 8 7 7 7 6 5 4 4 4 3 2 1 0 -0
9 10 12 13 13 13 13 12 12 13 13 14 14 14 13 13 13 13 12 11 10 10 10 9 8 7 7 7 7 6 4 3 2
8 10 12 13 13 13 13 13 13 13 13 14 14 15 14 14 14 14 13 13 13 13 12 12 11 11 10 10 10 9 8 6 5
6 8 10 12 13 13 13 13 13 13 13 13 14 14 15 15 15 15 14 14 14 14 14 14 13 13 12 12 11 11 10 9 9
4 6 8 11 12 13 13 13 13 13 13 13 13 14 14 15 15 15 15 15 15 15 15 15 14 14 13 13 13 12 11 11 11
3 4 6 8 10 12 12 13 13 13 13 13 13 13 14 15 15 15 15 15 16 16 16 16 15 14 14 14 14 13 13 12 12
3 3 4 6 8 10 11 13 13 13 13 13 13 13 13 14 15 15 15 15 15 16 16 16 16 15 14 14 14 14 13 13 13
3 3 4 5 6 8 10 12 13 13 13 13 13 13 12 13 14 14 15 15 15 15 16 16 16 16 16 16 15 14 14 14 14
4 4 4 5 5 6 8 10 12 13 13 13 13 12 12 12 12 13 14 14 15 15 16 16 16 16 17 16 15 14 14 14 14
6 5 5 5 5 5 7 8 10 12 12 12 13 13 12 12 11 12 13 14 14 15 15 16 16 16 17 16 16 14 14 14 14
6 6 6 5 5 5 6 7 9 11 12 12 12 13 12 12 11 11 12 13 14 15 15 15 16 16 17 17 16 14 14 14 14